| time (UTC) | temp F | wind direction | speed MPH | gust MPH | rain 1hr in | rain 24hr in | rain mn in | humidity % | barometer mb |
| 20260503220007 | 68 | 297 | 3.0 | 10.0 | 0.00 | 0.00 | 0.00 | 26 | 1005.0 |
| 20260503215506 | 68 | 290 | 7.0 | 11.0 | 0.00 | 0.00 | 0.00 | 25 | 1005.0 |
| 20260503215006 | 68 | 354 | 5.0 | 13.0 | 0.00 | 0.00 | 0.00 | 25 | 1005.1 |
| 20260503214505 | 68 | 324 | 5.0 | 14.0 | 0.00 | 0.00 | 0.00 | 25 | 1005.2 |
| 20260503214004 | 68 | 318 | 4.0 | 14.0 | 0.00 | 0.00 | 0.00 | 27 | 1005.1 |
| 20260503213503 | 68 | 293 | 8.0 | 14.0 | 0.00 | 0.00 | 0.00 | 27 | 1005.1 |
| 20260503213007 | 68 | 314 | 7.0 | 13.0 | 0.00 | 0.00 | 0.00 | 27 | 1005.3 |
| 20260503212503 | 69 | 317 | 4.0 | 8.0 | 0.00 | 0.00 | 0.00 | 26 | 1005.4 |
| 20260503212002 | 69 | 328 | 1.0 | 11.0 | 0.00 | 0.00 | 0.00 | 26 | 1005.4 |
| 20260503211500 | 68 | 267 | 4.0 | 11.0 | 0.00 | 0.00 | 0.00 | 25 | 1005.5 |
| 20260503211001 | 68 | 324 | 5.0 | 10.0 | 0.00 | 0.00 | 0.00 | 27 | 1005.6 |
| 20260503210600 | 68 | 328 | 5.0 | 19.0 | 0.00 | 0.00 | 0.00 | 27 | 1005.6 |
| 20260503210502 | 68 | 295 | 4.0 | 19.0 | 0.00 | 0.00 | 0.00 | 27 | 1005.6 |
| 20260503210100 | 68 | 356 | 7.0 | 19.0 | 0.00 | 0.00 | 0.00 | 27 | 1005.7 |
| 20260503205600 | 68 | 304 | 5.0 | 15.0 | 0.00 | 0.00 | 0.00 | 28 | 1005.7 |
| 20260503205059 | 68 | 340 | 4.0 | 12.0 | 0.00 | 0.00 | 0.00 | 28 | 1005.8 |
| 20260503204559 | 68 | 314 | 4.0 | 10.0 | 0.00 | 0.00 | 0.00 | 28 | 1005.8 |
| 20260503204059 | 67 | 326 | 5.0 | 14.0 | 0.00 | 0.00 | 0.00 | 27 | 1005.8 |
| 20260503203558 | 67 | 341 | 5.0 | 14.0 | 0.00 | 0.00 | 0.00 | 27 | 1006.0 |
| 20260503203114 | 68 | 296 | 5.0 | 15.0 | 0.00 | 0.00 | 0.00 | 27 | 1006.0 |
| 20260503202558 | 67 | 323 | 7.0 | 15.0 | 0.00 | 0.00 | 0.00 | 28 | 1006.1 |
| 20260503202058 | 67 | 319 | 6.0 | 12.0 | 0.00 | 0.00 | 0.00 | 28 | 1006.1 |
| 20260503201557 | 66 | 355 | 5.0 | 15.0 | 0.00 | 0.00 | 0.00 | 27 | 1006.2 |
| 20260503201058 | 67 | 349 | 5.0 | 15.0 | 0.00 | 0.00 | 0.00 | 25 | 1006.3 |
| 20260503200556 | 67 | 290 | 5.0 | 9.0 | 0.00 | 0.00 | 0.00 | 27 | 1006.2 |
| 20260503200056 | 67 | 20 | 4.0 | 9.0 | 0.00 | 0.00 | 0.00 | 25 | 1006.2 |
| 20260503195556 | 67 | 30 | 5.0 | 10.0 | 0.00 | 0.00 | 0.00 | 26 | 1006.3 |
| 20260503195054 | 67 | 55 | 3.0 | 12.0 | 0.00 | 0.00 | 0.00 | 28 | 1006.4 |
| 20260503194553 | 67 | 284 | 5.0 | 12.0 | 0.00 | 0.00 | 0.00 | 28 | 1006.4 |
| 20260503194052 | 66 | 311 | 3.0 | 11.0 | 0.00 | 0.00 | 0.00 | 30 | 1006.5 |
| 20260503193552 | 66 | 44 | 4.0 | 11.0 | 0.00 | 0.00 | 0.00 | 28 | 1006.6 |
| 20260503193054 | 66 | 4 | 4.0 | 11.0 | 0.00 | 0.00 | 0.00 | 27 | 1006.6 |
| 20260503192550 | 65 | 354 | 5.0 | 11.0 | 0.00 | 0.00 | 0.00 | 29 | 1006.7 |
| 20260503192050 | 65 | 1 | 5.0 | 16.0 | 0.00 | 0.00 | 0.00 | 28 | 1006.7 |
| 20260503191552 | 65 | 40 | 6.0 | 16.0 | 0.00 | 0.00 | 0.00 | 28 | 1006.8 |
| 20260503191048 | 65 | 328 | 5.0 | 13.0 | 0.00 | 0.00 | 0.00 | 28 | 1007.0 |
| 20260503190548 | 65 | 270 | 6.0 | 13.0 | 0.00 | 0.00 | 0.00 | 29 | 1007.1 |
| 20260503185548 | 65 | 34 | 12.0 | 17.0 | 0.00 | 0.00 | 0.00 | 30 | 1007.1 |
| 20260503185048 | 65 | 4 | 6.0 | 14.0 | 0.00 | 0.00 | 0.00 | 30 | 1007.1 |
| 20260503184545 | 65 | 347 | 7.0 | 14.0 | 0.00 | 0.00 | 0.00 | 32 | 1007.2 |
| 20260503184048 | 64 | 301 | 5.0 | 16.0 | 0.00 | 0.00 | 0.00 | 32 | 1007.3 |
| 20260503183545 | 64 | 44 | 9.0 | 16.0 | 0.00 | 0.00 | 0.00 | 33 | 1007.3 |
| 20260503183045 | 64 | 32 | 4.0 | 11.0 | 0.00 | 0.00 | 0.00 | 33 | 1007.3 |
| 20260503182544 | 64 | 18 | 5.0 | 14.0 | 0.00 | 0.00 | 0.00 | 33 | 1007.3 |
| 20260503182044 | 64 | 85 | 7.0 | 14.0 | 0.00 | 0.00 | 0.00 | 35 | 1007.3 |
| 20260503181551 | 64 | 34 | 6.0 | 13.0 | 0.00 | 0.00 | 0.00 | 34 | 1007.6 |
| 20260503181044 | 64 | 338 | 5.0 | 15.0 | 0.00 | 0.00 | 0.00 | 34 | 1007.4 |
| 20260503180543 | 64 | 4 | 4.0 | 15.0 | 0.00 | 0.00 | 0.00 | 34 | 1007.5 |
| 20260503180049 | 64 | 311 | 1.0 | 15.0 | 0.00 | 0.00 | 0.00 | 37 | 1007.4 |
| 20260503175542 | 64 | 19 | 8.0 | 15.0 | 0.00 | 0.00 | 0.00 | 34 | 1007.6 |
| 20260503175041 | 64 | 68 | 6.0 | 13.0 | 0.00 | 0.00 | 0.00 | 32 | 1007.6 |
| 20260503174542 | 64 | 34 | 6.0 | 12.0 | 0.00 | 0.00 | 0.00 | 34 | 1007.6 |
| 20260503174042 | 64 | 354 | 7.0 | 13.0 | 0.00 | 0.00 | 0.00 | 34 | 1007.8 |
| 20260503173541 | 64 | 19 | 5.0 | 13.0 | 0.00 | 0.00 | 0.00 | 34 | 1007.7 |
| 20260503173040 | 63 | 32 | 4.0 | 11.0 | 0.00 | 0.00 | 0.00 | 34 | 1007.7 |
| 20260503172539 | 63 | 71 | 5.0 | 11.0 | 0.00 | 0.00 | 0.00 | 34 | 1007.7 |
| 20260503172039 | 63 | 27 | 6.0 | 10.0 | 0.00 | 0.00 | 0.00 | 33 | 1007.7 |
| 20260503171538 | 63 | 37 | 5.0 | 10.0 | 0.00 | 0.00 | 0.00 | 35 | 1007.7 |
| 20260503171038 | 63 | 13 | 6.0 | 13.0 | 0.00 | 0.00 | 0.00 | 35 | 1007.7 |
| 20260503170538 | 63 | 22 | 8.0 | 13.0 | 0.00 | 0.00 | 0.00 | 35 | 1007.8 |
| 20260503150520 | 60 | 4 | 4.0 | 17.0 | 0.00 | 0.00 | 0.00 | 50 | 1007.5 |
| 20260503131006 | 53 | 41 | 5.0 | 13.0 | 0.00 | 0.00 | 0.00 | 59 | 1007.0 |
| 20260503130508 | 53 | 10 | 4.0 | 13.0 | 0.00 | 0.00 | 0.00 | 60 | 1006.9 |
| 20260503110556 | 48 | 317 | 2.0 | 4.0 | 0.00 | 0.00 | 0.00 | 63 | 1004.9 |
| 20260503100105 | 49 | 278 | 3.0 | 5.0 | 0.00 | 0.00 | 0.00 | 62 | 1004.8 |
| 20260503081536 | 53 | 239 | 5.0 | 10.0 | 0.00 | 0.00 | 0.00 | 54 | 1005.2 |
| 20260503081029 | 54 | 236 | 5.0 | 11.0 | 0.00 | 0.00 | 0.00 | 54 | 1005.3 |
| 20260503080527 | 54 | 228 | 6.0 | 11.0 | 0.00 | 0.00 | 0.00 | 54 | 1005.4 |
| 20260503072521 | 55 | 242 | 5.0 | 9.0 | 0.00 | 0.00 | 0.00 | 52 | 1005.6 |
| 20260503072019 | 55 | 250 | 5.0 | 9.0 | 0.00 | 0.00 | 0.00 | 52 | 1005.5 |
| 20260503071519 | 56 | 258 | 5.0 | 9.0 | 0.00 | 0.00 | 0.00 | 52 | 1005.6 |
| 20260503071016 | 56 | 232 | 6.0 | 9.0 | 0.00 | 0.00 | 0.00 | 51 | 1005.6 |
| 20260503070517 | 56 | 257 | 5.0 | 9.0 | 0.00 | 0.00 | 0.00 | 51 | 1005.6 |
| 20260503055005 | 59 | 256 | 7.0 | 14.0 | 0.00 | 0.00 | 0.00 | 49 | 1006.2 |
| 20260503054504 | 59 | 266 | 8.0 | 19.0 | 0.00 | 0.00 | 0.00 | 48 | 1006.4 |
| 20260503054004 | 59 | 257 | 9.0 | 19.0 | 0.00 | 0.00 | 0.00 | 48 | 1006.4 |
| 20260503053503 | 59 | 264 | 12.0 | 22.0 | 0.00 | 0.00 | 0.00 | 47 | 1006.5 |
| 20260503053005 | 58 | 263 | 13.0 | 22.0 | 0.00 | 0.00 | 0.00 | 49 | 1006.5 |
| 20260503052600 | 58 | 249 | 6.0 | 13.0 | 0.00 | 0.00 | 0.00 | 52 | 1006.8 |
| 20260503052100 | 58 | 264 | 6.0 | 20.0 | 0.00 | 0.00 | 0.00 | 54 | 1006.8 |
| 20260503051559 | 58 | 269 | 10.0 | 21.0 | 0.00 | 0.00 | 0.00 | 53 | 1007.0 |
| 20260503051059 | 58 | 288 | 12.0 | 21.0 | 0.00 | 0.00 | 0.00 | 54 | 1007.0 |
| 20260503050558 | 58 | 259 | 11.0 | 21.0 | 0.00 | 0.00 | 0.00 | 53 | 1006.9 |
| 20260503050056 | 58 | 278 | 8.0 | 15.0 | 0.00 | 0.00 | 0.00 | 53 | 1007.1 |
| 20260503045558 | 58 | 274 | 9.0 | 16.0 | 0.00 | 0.00 | 0.00 | 53 | 1007.0 |
| 20260503045055 | 57 | 273 | 9.0 | 16.0 | 0.00 | 0.00 | 0.00 | 52 | 1007.2 |
| 20260503044557 | 57 | 263 | 8.0 | 11.0 | 0.00 | 0.00 | 0.00 | 52 | 1007.2 |
| 20260503044055 | 56 | 252 | 6.0 | 9.0 | 0.00 | 0.00 | 0.00 | 50 | 1007.3 |
| 20260503043553 | 56 | 262 | 5.0 | 9.0 | 0.00 | 0.00 | 0.00 | 49 | 1007.3 |
| 20260503043053 | 56 | 237 | 5.0 | 11.0 | 0.00 | 0.00 | 0.00 | 48 | 1007.4 |
| 20260503042553 | 55 | 253 | 7.0 | 11.0 | 0.00 | 0.00 | 0.00 | 48 | 1007.4 |
| 20260503042051 | 55 | 256 | 6.0 | 11.0 | 0.00 | 0.00 | 0.00 | 48 | 1007.5 |
| 20260503041551 | 55 | 249 | 7.0 | 10.0 | 0.00 | 0.00 | 0.00 | 49 | 1007.7 |
| 20260503041054 | 55 | 248 | 7.0 | 10.0 | 0.00 | 0.00 | 0.00 | 49 | 1007.7 |
| 20260503040550 | 55 | 240 | 6.0 | 10.0 | 0.00 | 0.00 | 0.00 | 49 | 1007.7 |
| 20260503040049 | 55 | 248 | 5.0 | 9.0 | 0.00 | 0.00 | 0.00 | 49 | 1007.7 |
| 20260503035549 | 55 | 243 | 5.0 | 9.0 | 0.00 | 0.00 | 0.00 | 48 | 1007.8 |
| 20260503035051 | 56 | 240 | 4.0 | 9.0 | 0.00 | 0.00 | 0.00 | 48 | 1007.9 |
| 20260503034547 | 56 | 248 | 3.0 | 6.0 | 0.00 | 0.00 | 0.00 | 47 | 1008.1 |
| 20260503034047 | 56 | 242 | 4.0 | 8.0 | 0.00 | 0.00 | 0.00 | 47 | 1008.1 |
| 20260503033544 | 56 | 237 | 4.0 | 8.0 | 0.00 | 0.00 | 0.00 | 46 | 1008.2 |
| 20260503033045 | 56 | 244 | 5.0 | 8.0 | 0.00 | 0.00 | 0.00 | 46 | 1008.3 |
| 20260503032544 | 56 | 252 | 5.0 | 8.0 | 0.00 | 0.00 | 0.00 | 46 | 1008.4 |
| 20260503032044 | 56 | 243 | 4.0 | 8.0 | 0.00 | 0.00 | 0.00 | 46 | 1008.4 |
| 20260503031546 | 56 | 248 | 4.0 | 7.0 | 0.00 | 0.00 | 0.00 | 47 | 1008.5 |
| 20260503031042 | 57 | 253 | 4.0 | 8.0 | 0.00 | 0.00 | 0.00 | 47 | 1008.6 |
| 20260503030542 | 57 | 257 | 4.0 | 8.0 | 0.00 | 0.00 | 0.00 | 47 | 1008.7 |
| 20260503030046 | 57 | 259 | 4.0 | 7.0 | 0.00 | 0.00 | 0.00 | 47 | 1008.7 |
| 20260503025540 | 57 | 233 | 4.0 | 7.0 | 0.00 | 0.00 | 0.00 | 47 | 1008.8 |
| 20260503025039 | 57 | 242 | 3.0 | 5.0 | 0.00 | 0.00 | 0.00 | 48 | 1008.9 |
| 20260503024537 | 57 | 242 | 3.0 | 6.0 | 0.00 | 0.00 | 0.00 | 48 | 1009.0 |
| 20260503024037 | 57 | 240 | 3.0 | 6.0 | 0.00 | 0.00 | 0.00 | 48 | 1009.1 |
| 20260503023537 | 57 | 222 | 2.0 | 5.0 | 0.00 | 0.00 | 0.00 | 47 | 1009.2 |
| 20260503023038 | 57 | 228 | 2.0 | 5.0 | 0.00 | 0.00 | 0.00 | 47 | 1009.2 |
| 20260503022538 | 57 | 186 | 0.0 | 6.0 | 0.00 | 0.00 | 0.00 | 47 | 1009.2 |
| 20260503022035 | 57 | 191 | 1.0 | 6.0 | 0.00 | 0.00 | 0.00 | 47 | 1009.3 |
| 20260503021535 | 58 | 208 | 1.0 | 5.0 | 0.00 | 0.00 | 0.00 | 47 | 1009.4 |
| 20260503021034 | 58 | 172 | 1.0 | 5.0 | 0.00 | 0.00 | 0.00 | 46 | 1009.4 |
| 20260503020537 | 58 | 193 | 1.0 | 4.0 | 0.00 | 0.00 | 0.00 | 46 | 1009.5 |
| 20260503020034 | 58 | 195 | 1.0 | 4.0 | 0.00 | 0.00 | 0.00 | 46 | 1009.6 |
| 20260503015533 | 58 | 214 | 2.0 | 4.0 | 0.00 | 0.00 | 0.00 | 46 | 1009.7 |
| 20260503015032 | 58 | 177 | 1.0 | 3.0 | 0.00 | 0.00 | 0.00 | 46 | 1009.7 |
| 20260503014531 | 58 | 185 | 1.0 | 2.0 | 0.00 | 0.00 | 0.00 | 46 | 1009.8 |
| 20260503014030 | 58 | 179 | 1.0 | 3.0 | 0.00 | 0.00 | 0.00 | 46 | 1009.9 |
| 20260503013531 | 58 | 172 | 0.0 | 2.0 | 0.00 | 0.00 | 0.00 | 46 | 1009.9 |
| 20260503013030 | 59 | 174 | 0.0 | 2.0 | 0.00 | 0.00 | 0.00 | 46 | 1010.0 |
| 20260503012530 | 59 | 160 | 0.0 | 2.0 | 0.00 | 0.00 | 0.00 | 45 | 1010.1 |
| 20260503012028 | 59 | 179 | 0.0 | 2.0 | 0.00 | 0.00 | 0.00 | 45 | 1010.1 |
| 20260503011528 | 59 | 221 | 1.0 | 5.0 | 0.00 | 0.00 | 0.00 | 44 | 1010.1 |
| 20260503011027 | 59 | 240 | 2.0 | 9.0 | 0.00 | 0.00 | 0.00 | 44 | 1010.3 |
| 20260503010530 | 60 | 253 | 3.0 | 10.0 | 0.00 | 0.00 | 0.00 | 44 | 1010.4 |
| 20260503010029 | 59 | 261 | 5.0 | 10.0 | 0.00 | 0.00 | 0.00 | 45 | 1010.4 |
| 20260503005526 | 60 | 278 | 4.0 | 15.0 | 0.00 | 0.00 | 0.00 | 46 | 1010.5 |
| 20260503005028 | 60 | 278 | 10.0 | 21.0 | 0.00 | 0.00 | 0.00 | 46 | 1010.7 |
| 20260503004523 | 60 | 287 | 10.0 | 21.0 | 0.00 | 0.00 | 0.00 | 44 | 1010.9 |
| 20260503004023 | 60 | 290 | 11.0 | 20.0 | 0.00 | 0.00 | 0.00 | 43 | 1011.2 |
| 20260503003523 | 61 | 284 | 11.0 | 21.0 | 0.00 | 0.00 | 0.00 | 42 | 1011.3 |
| 20260503003023 | 61 | 290 | 9.0 | 21.0 | 0.00 | 0.00 | 0.00 | 42 | 1011.2 |
| 20260503002523 | 61 | 288 | 15.0 | 22.0 | 0.00 | 0.00 | 0.00 | 41 | 1011.1 |
| 20260503002023 | 62 | 288 | 15.0 | 23.0 | 0.00 | 0.00 | 0.00 | 37 | 1011.1 |
| 20260503001523 | 62 | 295 | 12.0 | 23.0 | 0.00 | 0.00 | 0.00 | 36 | 1011.2 |
| 20260503001022 | 62 | 287 | 12.0 | 21.0 | 0.00 | 0.00 | 0.00 | 36 | 1011.1 |
| 20260503000522 | 62 | 283 | 7.0 | 18.0 | 0.00 | 0.00 | 0.00 | 35 | 1011.0 |
| 20260503000022 | 63 | 284 | 8.0 | 20.0 | 0.00 | 0.00 | 0.00 | 36 | 1011.1 |
| 20260502235521 | 63 | 266 | 10.0 | 39.0 | 0.00 | 0.00 | 0.00 | 33 | 1011.1 |
| 20260502235022 | 63 | 248 | 16.0 | 39.0 | 0.00 | 0.00 | 0.00 | 35 | 1011.1 |
| 20260502234525 | 63 | 285 | 9.0 | 16.0 | 0.00 | 0.00 | 0.00 | 37 | 1011.1 |
| 20260502234120 | 63 | 290 | 6.0 | 14.0 | 0.00 | 0.00 | 0.00 | 36 | 1011.1 |
| 20260502233519 | 63 | 290 | 6.0 | 16.0 | 0.00 | 0.00 | 0.00 | 33 | 1011.0 |
| 20260502233020 | 63 | 285 | 11.0 | 16.0 | 0.00 | 0.00 | 0.00 | 34 | 1011.1 |
| 20260502232518 | 63 | 278 | 8.0 | 38.0 | 0.00 | 0.00 | 0.00 | 35 | 1011.1 |
| 20260502232018 | 63 | 270 | 10.0 | 38.0 | 0.00 | 0.00 | 0.00 | 33 | 1011.1 |
| 20260502231523 | 64 | 248 | 7.0 | 26.0 | 0.00 | 0.00 | 0.00 | 33 | 1011.2 |
| 20260502231018 | 64 | 274 | 5.0 | 26.0 | 0.00 | 0.00 | 0.00 | 32 | 1011.2 |
| 20260502230517 | 64 | 325 | 5.0 | 18.0 | 0.00 | 0.00 | 0.00 | 34 | 1011.2 |
| 20260502230019 | 64 | 294 | 10.0 | 31.0 | 0.00 | 0.00 | 0.00 | 33 | 1011.1 |
| 20260502225519 | 64 | 240 | 20.0 | 31.0 | 0.00 | 0.00 | 0.00 | 35 | 1011.2 |
| 20260502225016 | 64 | 294 | 13.0 | 21.0 | 0.00 | 0.00 | 0.00 | 33 | 1011.2 |
| 20260502224514 | 64 | 308 | 10.0 | 20.0 | 0.00 | 0.00 | 0.00 | 32 | 1011.2 |
| 20260502224014 | 64 | 281 | 13.0 | 20.0 | 0.00 | 0.00 | 0.00 | 34 | 1011.1 |
| 20260502223515 | 64 | 298 | 12.0 | 18.0 | 0.00 | 0.00 | 0.00 | 35 | 1011.2 |
| 20260502223012 | 65 | 302 | 10.0 | 15.0 | 0.00 | 0.00 | 0.00 | 34 | 1011.2 |
| 20260502222512 | 65 | 266 | 8.0 | 18.0 | 0.00 | 0.00 | 0.00 | 33 | 1011.2 |
| 20260502222010 | 65 | 250 | 12.0 | 18.0 | 0.00 | 0.00 | 0.00 | 33 | 1011.2 |
| 20260502221510 | 65 | 294 | 6.0 | 15.0 | 0.00 | 0.00 | 0.00 | 35 | 1011.3 |
| 20260502221011 | 65 | 291 | 6.0 | 18.0 | 0.00 | 0.00 | 0.00 | 36 | 1011.3 |
| 20260502220509 | 64 | 284 | 9.0 | 15.0 | 0.00 | 0.00 | 0.00 | 36 | 1011.3 |